sat.trackr.live / text

‹ back to catalog

STARLINK-34585

NORAD 64779 · 2025-147AA

PAYLOAD ACTIVE UNKNOWN

§ Identity

Operator
Country
US
Launch date
2025-07-08
Launch site
AFETR
Launch vehicle
Mass (kg)
RCS (m²)

Purposes: comms

External: N2YO · Heavens-Above · Gunter

§ Orbital elements

Epoch: 2026-05-25T00:16:36.122016Z

Period
93.85 min
Inclination
53.1603°
Eccentricity
0.0000446
Mean motion
15.34418226 rev/d
Perigee alt
462.3 km
Apogee alt
463.0 km
Semi-major
6,840.8 km
B*
8.2145e-4
RAAN
247.7645°
Arg perigee
129.0378°
Mean anomaly
231.0664°
Rev number
5,039

§ Raw data

STARLINK-345851 64779U 25147AA  26145.01152919  .00027496  00000+0  82145-3 0  99982 64779  53.1603 247.7645 0000446 129.0378 231.0664 15.34418226 50397

JSON: /api/v1/satellites/64779 · /tle

For live sub-satellite position, see the globe view (requires WebGL).

§ Visibility from observer

Set your observer location to see the next 7 days of passes ≥ 10°. The values pass through the URL so the page stays shareable.

No JS? Fill the form by hand. The geolocation button needs JavaScript.